Hourly Data Report for October 03, 2013

All times are specified in Local Standard Time (LST). Add 1 hour to adjust for Daylight Saving Time where and when it is observed.

PETAWAWA AWOS 2
ONTARIO

45°57'00.000" N
77°19'00.000" W
130.10 m
6106396
71625
YWA

Related Data

No related data is available for this station

Download Data

Hourly Data (October 2013)
Hourly Data Report for October 3, 2013
Temp Definition
°C
Dew Point Temp Definition
°C
Rel Hum Definition
%
Wind Dir Definition
10's deg

Wind Spd Definition
km/h
Visibility Definition
km
Stn Press Definition
kPa
Hmdx Definition


Wind Chill Definition


Weather Definition


TIME
00:00 7.7 6.3 91   0 15.0 100.09      
01:00 7.5 6.4 93 21 6 15.0 100.14      
02:00 7.9 6.9 93 29 4 15.0 100.15      
03:00 6.2 5.6 96 25 6 15.0 100.18      
04:00 7.0 6.1 94 28 6 15.0 100.23      
05:00 5.5 5.2 98   0 15.0 100.26      
06:00 5.8 5.6 99 23 4 15.0 100.30      
07:00 7.0 6.5 97 25 4 15.0 100.38      
08:00 10.3 9.0 92 28 7 15.0 100.46      
09:00 12.2 9.0 81 32 4 15.0 100.44      
10:00 14.8 10.4 75   0 15.0 100.39      
11:00 15.8 9.8 67 8 7 15.0 100.33      
12:00 19.1 10.7 58 8 9 15.0 100.29      
13:00 19.4 10.1 55 9 6 15.0 100.24      
14:00 20.5 10.6 53 10 7 15.0 100.17      
15:00 20.5 10.2 52 6 6 15.0 100.15      
16:00 21.0 7.7 42 10 4 15.0 100.14      
17:00 20.2 7.1 43 14 4 15.0 100.15      
18:00 18.1 8.5 53   0 15.0 100.17      
19:00 15.7 11.5 76   0 15.0 100.21      
20:00 18.2 7.3 49 36 7 15.0 100.21      
21:00 17.0 8.2 56 36 4 15.0 100.21      
22:00 17.2 7.3 52 1 7 15.0 100.25      
23:00 16.2 7.9 58 6 4 15.0 100.25      

Notes on Data Quality.

Legend

  • E = Estimated
  • M = Missing
  • NA = Not Available
  • ‡ = Partner data that is not subject to review by the National Climate Archives
Date modified: